FW9868 Weather Reports


time (UTC)temp
F
wind
direction
speed
knots
gust
knots
rain 1hr
in
rain 24hr
in
rain mn
in
humidity
%
barometer
mb
20260906134617 79 17 0.0 0.0 0.00 0.01 0.01 91 1016.2
20260906133114 78 24 0.0 0.0 0.00 0.01 0.01 91 1016.4
20260906131612 78 22 0.0 0.0 0.00 0.01 0.01 92 1016.2
20260906130109 77 18 0.0 0.0 0.00 0.01 0.01 91 1016.1
20260906124607 77 25 0.0 0.0 0.00 0.01 0.01 92 1016.3
20260906123103 77 15 0.0 0.0 0.00 0.01 0.01 91 1016.3
20260906121559 77 16 0.0 0.0 0.00 0.01 0.01 91 1016.1
20260906120054 77 15 0.0 0.0 0.00 0.01 0.01 91 1016.2
20260906114549 77 19 0.0 0.0 0.00 0.01 0.01 91 1016.3
20260906113045 77 12 0.0 0.0 0.00 0.01 0.01 91 1016.2
20260906111541 77 12 0.0 0.0 0.00 0.01 0.01 91 1016.2
20260906110042 77 17 0.0 0.0 0.00 0.01 0.01 91 1016.3
20260906104537 77 15 0.0 0.0 0.00 0.01 0.01 91 1016.6
20260906103037 77 19 0.0 0.0 0.00 0.01 0.01 91 1016.3
20260906101532 77 13 0.0 0.0 0.00 0.01 0.01 91 1015.8
20260906100029 77 12 0.0 0.0 0.00 0.01 0.01 91 1015.8
20260906094524 77 20 0.0 0.0 0.00 0.01 0.01 92 1016.0
20260906093022 77 16 0.0 0.0 0.00 0.01 0.01 91 1015.4
20260906091519 77 21 0.0 0.0 0.00 0.01 0.01 91 1015.3
20260906090016 77 20 0.0 0.0 0.00 0.01 0.01 91 1015.6
20260906084515 77 23 0.0 0.0 0.00 0.01 0.01 91 1015.9
20260906083015 77 16 0.0 0.0 0.00 0.01 0.01 91 1016.0
20260906081513 77 14 0.0 0.0 0.00 0.01 0.01 91 1015.7
20260906080013 77 17 0.0 0.0 0.00 0.01 0.01 91 1015.5
20260906074508 77 15 0.0 0.0 0.00 0.01 0.01 91 1015.5
20260906073004 77 19 0.0 0.0 0.00 0.01 0.01 91 1015.8
20260906071503 78 22 0.0 0.0 0.00 0.01 0.01 90 1015.5
20260906070001 78 21 0.0 0.0 0.05 0.01 0.01 91 1015.2
20260906064459 78 21 0.0 0.0 0.00 0.00 0.00 90 1015.4
20260906062955 78 22 0.0 0.0 0.00 0.00 0.00 90 1015.3
20260906061453 78 22 0.0 0.0 0.00 0.00 0.00 90 1015.8
20260906055952 78 40 0.0 0.0 0.00 0.00 0.00 90 1016.0
20260906054448 79 23 0.0 0.0 0.00 0.00 0.00 90 1015.8
20260906052947 78 5 0.0 0.0 0.00 0.00 0.00 89 1016.5
20260906051447 78 12 0.0 0.0 0.00 0.00 0.00 89 1016.2
20260906045947 79 14 0.0 0.0 0.00 0.00 0.00 88 1016.4
20260906044443 79 14 0.0 0.0 0.00 0.00 0.00 88 1016.0
20260906042942 79 13 0.0 0.0 0.00 0.00 0.00 88 1016.2
20260906041438 79 13 0.0 0.0 0.00 0.00 0.00 88 1016.5
20260906035933 80 20 0.0 0.0 0.00 0.00 0.00 88 1016.4
20260906034430 80 351 0.0 0.0 0.00 0.00 0.00 88 1016.3
20260906032928 80 10 0.0 0.0 0.00 0.00 0.00 88 1016.4
20260906031425 80 8 0.0 0.0 0.00 0.00 0.00 87 1016.5
20260906025921 80 351 0.0 0.0 0.00 0.00 0.00 86 1016.4
20260906024420 81 354 0.0 0.0 0.00 0.00 0.00 86 1016.4
20260906022917 81 0 0.0 0.0 0.00 0.00 0.00 85 1016.3
20260906021414 82 359 0.0 0.0 0.00 0.00 0.00 85 1016.0
20260906015914 82 6 0.0 0.0 0.00 0.00 0.00 85 1015.8
20260906014414 83 6 0.0 0.0 0.00 0.00 0.00 84 1015.7
20260906012913 83 356 0.0 0.0 0.00 0.00 0.00 83 1015.3
20260906011413 83 10 0.0 0.0 0.00 0.00 0.00 83 1015.1
20260906005912 84 34 0.0 0.0 0.00 0.00 0.00 81 1014.9
20260906004410 85 27 0.0 0.0 0.00 0.00 0.00 80 1014.6
20260906002908 86 350 0.0 0.0 0.00 0.00 0.00 78 1014.7
20260906001405 87 351 0.0 0.9 0.00 0.00 0.00 77 1014.8
20260905235900 88 349 0.9 0.9 0.00 0.00 0.00 77 1014.7
20260905234357 89 307 0.0 0.9 0.00 0.00 0.00 75 1014.5
20260905232852 90 354 0.9 2.6 0.00 0.00 0.00 73 1014.4
20260905231349 91 328 0.0 0.9 0.00 0.00 0.00 72 1014.5
20260905225849 91 91 0.9 0.9 0.00 0.00 0.00 70 1014.6
20260905224347 91 329 0.9 2.6 0.00 0.00 0.00 69 1014.2
20260905222845 92 322 0.0 0.9 0.00 0.00 0.00 67 1014.4
20260905221343 93 243 0.9 2.6 0.00 0.00 0.00 66 1014.6
20260905215840 93 269 0.0 2.6 0.00 0.00 0.00 66 1014.3
20260905214338 93 317 0.9 2.6 0.00 0.00 0.00 65 1014.4
20260905212835 94 69 0.9 2.6 0.00 0.00 0.00 65 1014.6
20260905211331 94 347 0.0 4.3 0.00 0.00 0.00 65 1014.8
20260905205826 94 150 3.5 4.3 0.00 0.00 0.00 65 1015.1
20260905204322 95 221 4.3 5.2 0.00 0.00 0.00 63 1015.0
20260905202818 95 223 1.7 5.2 0.00 0.00 0.00 64 1015.3
20260905201316 96 285 0.9 3.5 0.00 0.00 0.00 62 1015.4
20260905195815 97 224 2.6 3.5 0.00 0.00 0.00 63 1015.4
20260905194312 98 221 2.6 3.5 0.00 0.00 0.00 61 1015.3
20260905192808 96 127 0.0 0.9 0.00 0.00 0.00 62 1015.2
20260905191308 99 186 0.0 2.6 0.00 0.00 0.00 59 1015.6
20260905185805 96 173 0.0 0.9 0.00 0.00 0.00 61 1016.1
20260905184305 98 245 1.7 2.6 0.00 0.00 0.00 61 1016.1
20260905182805 94 167 0.9 2.6 0.00 0.00 0.00 65 1016.3
20260905181300 89 43 0.0 0.9 0.00 0.00 0.00 73 1017.0
20260905175755 92 35 0.0 3.5 0.00 0.00 0.00 70 1017.1
20260905174253 93 216 1.7 3.5 0.00 0.00 0.00 69 1017.3
20260905172750 93 109 1.7 3.5 0.00 0.00 0.00 69 1017.2
20260905171247 91 64 0.0 0.9 0.00 0.00 0.00 71 1017.3
20260905165743 91 170 1.7 3.5 0.00 0.00 0.00 71 1017.4
20260905164240 96 234 0.9 3.5 0.00 0.00 0.00 57 1017.4
20260905162739 95 71 0.9 2.6 0.00 0.00 0.00 58 1017.5
20260905161238 95 324 0.0 0.9 0.00 0.00 0.00 59 1017.6
20260905155738 93 179 1.7 2.6 0.00 0.00 0.00 65 1017.5
20260905154233 90 326 0.0 2.6 0.00 0.00 0.00 71 1017.4
20260905152730 87 134 0.9 2.6 0.00 0.00 0.00 76 1017.3
20260905151226 87 42 0.0 0.0 0.00 0.00 0.00 80 1017.3
20260905145723 86 317 0.0 0.0 0.00 0.00 0.00 82 1017.5
20260905144223 84 353 0.0 0.0 0.00 0.00 0.00 85 1017.7
20260905142721 83 9 0.0 0.0 0.00 0.00 0.00 86 1017.7
20260905141219 82 6 0.0 0.0 0.00 0.00 0.00 86 1017.9
20260905135714 82 30 0.0 0.0 0.00 0.00 0.00 87 1017.8